Air Resources Laboratory banner image
Air Resources Laboratory web site National Oceanic and Atmospheric Administration (NOAA)

mi roundup


Office: DTX

ASUS43 KDTX 180101
RWRMI
MICHIGAN HOURLY REGIONAL WEATHER ROUNDUP
NATIONAL WEATHER SERVICE DETROIT/PONTIAC MI
800 PM EST SUN DEC 17 2017

NOTE: "FAIR" INDICATES FEW OR NO CLOUDS BELOW 12,000 FEET WITH NO
SIGNIFICANT WEATHER AND/OR OBSTRUCTION TO VISIBILITY.

MIZ047>049-052>055-059>063-066>070-074>076-081>083-180200-
SOUTHEAST LOWER MICHIGAN

CITY           SKY/WX    TMP DP  RH WIND       PRES   REMARKS
ADRIAN         CLOUDY    31  30  96 S5        30.05S FOG     WCI  26
ANN ARBOR      CLOUDY    32  30  92 E3        30.03F FOG
BAD AXE        CLOUDY    28  24  86 SE7       30.04F WCI  20
CARO           CLOUDY    26  25  94 SE7       30.03S FOG     WCI  19
DETROIT CITY   CLOUDY    30  28  92 E3        30.05F FOG
DETROIT        CLOUDY    35  31  85 SE3       30.05F FOG
FLINT          CLOUDY    31  28  89 S7        30.02F WCI  24
GROSSE ILE     CLOUDY    33  32  94 S5        30.04S FOG     WCI  29
HILLSDALE      CLOUDY    32  30  93 S7        30.01S FOG     WCI  26
HOWELL         CLOUDY    31  30  97 SE10      30.00F FOG     WCI  22

CITY           SKY/WX    TMP DP  RH WIND       PRES   REMARKS
JACKSON        CLOUDY    33  29  85 SE6       30.01F FOG     WCI  28
LAMBERTVILLE   CLOUDY    32  29  90 CALM      30.05S FOG
LANSING        MOCLDY    32  30  92 SE6       30.01F FOG     WCI  26
LAPEER         CLOUDY    27  26  95 SE5       30.03S FOG     WCI  22
MASON          CLOUDY    32  28  86 S8        30.01S FOG     WCI  25
MONROE         CLOUDY    32  30  92 CALM      30.04F FOG
MT. CLEMENS    CLOUDY    30  29  99 E6        30.03F WCI  24
PONTIAC        CLOUDY    30  29  96 SE6       30.01F FOG     WCI  24
PORT HOPE        N/A     30  25  81 SE7       30.04F WCI  23
PORT HURON     CLOUDY    25  19  80 E9        30.06F WCI  15
TRI CITIES     CLOUDY    28  25  88 E8        30.04F FOG     WCI  20
MIDLAND        CLOUDY    28  25  86 E5        30.04R WCI  23
TROY           CLOUDY    31  29  92 CALM      30.06S
SAGINAW HB     CLOUDY    28  25  86 E6        30.04S WCI  22
$$
MIZ043>046-050>051-056>058-064>065-071>073-077>080-180200-
SOUTHWEST LOWER MICHIGAN

CITY           SKY/WX    TMP DP  RH WIND       PRES   REMARKS
BATTLE CREEK   CLOUDY    32  30  92 S9        30.00S FOG     WCI  24
BENTON HARBOR  CLOUDY    38  31  76 S6        30.00S WCI  33
BIG RAPIDS     CLOUDY    26  26  96 SE7       30.00S FOG     WCI  19
COLDWATER      CLOUDY    34  33  96 S6        30.02S FOG     WCI  29
HOLLAND        CLOUDY    31  27  85 E3        30.00R FOG
GRAND RAPIDS   CLOUDY    29  28  96 E6        30.00R FOG     WCI  23
IONIA          CLOUDY    29  28  96 E3        30.00S FOG
KALAMAZOO      CLOUDY    33  30  88 S7        30.01R FOG     WCI  27
LUDINGTON      CLOUDY    29  27  90 SE3       30.01R FOG
MARSHALL       CLOUDY    32  32  99 S5        30.01R FOG     WCI  27
MOUNT PLEASANT CLOUDY    28  25  87 E6        30.02S FOG     WCI  22
MUSKEGON       CLOUDY    31  26  82 E5        30.01R HAZE    WCI  26
SOUTH HAVEN    CLOUDY    36  31  82 CALM      29.99S
$$
MIZ016>042-180200-
NORTHERN LOWER MICHIGAN

CITY           SKY/WX    TMP DP  RH WIND       PRES   REMARKS
ALPENA         CLOUDY    27  24  89 SE8       30.05F WCI  19
BEAVER ISLAND  CLOUDY    30  27  90 SE6       30.00F WCI  24
BELLAIRE       CLOUDY    28  26  95 SE5       30.02S WCI  22
CADILLAC       CLOUDY    24  24  99 SE6       29.96F FOG     WCI  17
CHARLEVOIX     CLOUDY    28  25  89 SE6       30.03F WCI  21
FRANKFORT      CLOUDY    31  27  88 SE6       30.00S WCI  25
GAYLORD        CLOUDY    23  21  92 SE9       29.98F FOG     WCI  13
GRAYLING       CLOUDY    24  22  89 E7        30.01S WCI  16
HARBOR SPRINGS CLOUDY    26  23  88 E5        30.01F WCI  20
HOUGHTON LAKE  CLOUDY    24  20  84 E7        30.00F WCI  16
MANISTEE       CLOUDY    29  32 100 SE5       30.01R WCI  24
OSCODA         CLOUDY    30  24  78 SE3       30.05F
PELLSTON       CLOUDY    26  22  84 SE7       30.02F WCI  18
ROGERS CITY    CLOUDY    27  24  89 SE8       30.05F WCI  18
TRAVERSE CITY  CLOUDY    28  24  85 VRB6      30.00F WCI  22
$$
MIZ007>008-015-180200-
EASTERN UPPER MICHIGAN

CITY           SKY/WX    TMP DP  RH WIND       PRES   REMARKS
MACKINAC ISLAN CLOUDY    28  22  79 SE9       30.01F WCI  19
NEWBERRY       CLOUDY    17  17  97 E3        30.00F
S. S. MARIE    CLOUDY    17  12  80 E8        30.04F WCI   7
MUNISING         N/A     26  24  92 S6        29.97F WCI  19
$$
MIZ004>006-011>014-085-180200-
CENTRAL UPPER MICHIGAN

CITY           SKY/WX    TMP DP  RH WIND       PRES   REMARKS
MANISTIQUE     CLOUDY    31  26  81 SE9       29.98F WCI  23
ESCANABA       CLOUDY    29  26  89 CALM      29.98F
MENOMINEE      CLOUDY    31  28  89 CALM      29.99F
SAWYER-GWINN   LGT SNOW  25  23  93 SW7       29.95F WCI  17
$$
MIZ001>003-009>011-084-180200-
WESTERN UPPER MICHIGAN

CITY           SKY/WX    TMP DP  RH WIND       PRES   REMARKS
IRON MOUNTAIN  CLOUDY    26  23  88 CALM      29.95S
HOUGHTON       CLOUDY    26  21  81 SW5       29.92F WCI  20
COPPER HARBOR    N/A     27  21  78 NW3       29.94F
IRONWOOD       CLOUDY    24  23  96 SW3       29.94S
$$

ABBREVIATIONS USED IN REMARKS
   TC - TEMPERATURE IN CELSIUS
  WCI - WIND CHILL INDEX
   HX - HEAT INDEX
  VSB - VISIBILITY



ASUS43 KDTX 180110
RWRMI
MICHIGAN HOURLY REGIONAL WEATHER ROUNDUP
NATIONAL WEATHER SERVICE DETROIT/PONTIAC MI
800 PM EST SUN DEC 17 2017

NOTE: "FAIR" INDICATES FEW OR NO CLOUDS BELOW 12,000 FEET WITH NO
SIGNIFICANT WEATHER AND/OR OBSTRUCTION TO VISIBILITY.

MIZ047>049-052>055-059>063-066>070-074>076-081>083-180200-
SOUTHEAST LOWER MICHIGAN

CITY           SKY/WX    TMP DP  RH WIND       PRES   REMARKS
ADRIAN         CLOUDY    31  30  96 S5        30.05S FOG     WCI  26
ALMA           CLOUDY    28  27  96 E5        30.03S FOG     WCI  23
ANN ARBOR      CLOUDY    32  30  92 E3        30.03F FOG
BAD AXE        CLOUDY    28  24  86 SE7       30.04F WCI  20
CARO           CLOUDY    26  25  94 SE7       30.03S FOG     WCI  19
DETROIT CITY   CLOUDY    30  28  92 E3        30.05F FOG
DETROIT        CLOUDY    35  31  85 SE3       30.05F FOG
FLINT          CLOUDY    31  28  89 S7        30.02F WCI  24
GROSSE ILE     CLOUDY    33  32  94 S5        30.04S FOG     WCI  29
HILLSDALE      CLOUDY    32  30  93 S7        30.01S FOG     WCI  26
HOWELL         CLOUDY    31  30  97 SE10      30.00F FOG     WCI  22

CITY           SKY/WX    TMP DP  RH WIND       PRES   REMARKS
JACKSON        CLOUDY    33  29  85 SE6       30.01F FOG     WCI  28
LAMBERTVILLE   CLOUDY    32  29  90 CALM      30.05S FOG
LANSING        MOCLDY    32  30  92 SE6       30.01F FOG     WCI  26
LAPEER         CLOUDY    27  26  95 SE5       30.03S FOG     WCI  22
MASON          CLOUDY    32  28  86 S8        30.01S FOG     WCI  25
MONROE         CLOUDY    32  30  92 CALM      30.04F FOG
MT. CLEMENS    CLOUDY    30  29  99 E6        30.03F WCI  24
PONTIAC        CLOUDY    30  29  96 SE6       30.01F FOG     WCI  24
PORT HOPE        N/A     30  25  81 SE7       30.04F WCI  23
PORT HURON     CLOUDY    25  19  80 E9        30.06F WCI  15
TRI CITIES     CLOUDY    28  25  88 E8        30.04F FOG     WCI  20
MIDLAND        CLOUDY    28  25  86 E5        30.04R WCI  23
TROY           CLOUDY    31  29  92 CALM      30.06S
SAGINAW HB     CLOUDY    28  25  86 E6        30.04S WCI  22
$$
MIZ043>046-050>051-056>058-064>065-071>073-077>080-180200-
SOUTHWEST LOWER MICHIGAN

CITY           SKY/WX    TMP DP  RH WIND       PRES   REMARKS
BATTLE CREEK   CLOUDY    32  30  92 S9        30.00S FOG     WCI  24
BENTON HARBOR  CLOUDY    38  31  76 S6        30.00S WCI  33
BIG RAPIDS     CLOUDY    26  26  96 SE7       30.00S FOG     WCI  19
COLDWATER      CLOUDY    34  33  96 S6        30.02S FOG     WCI  29
HOLLAND        CLOUDY    31  27  85 E3        30.00R FOG
GRAND RAPIDS   CLOUDY    29  28  96 E6        30.00R FOG     WCI  23
IONIA          CLOUDY    29  28  96 E3        30.00S FOG
KALAMAZOO      CLOUDY    33  30  88 S7        30.01R FOG     WCI  27
LUDINGTON      CLOUDY    29  27  90 SE3       30.01R FOG
MARSHALL       CLOUDY    32  32  99 S5        30.01R FOG     WCI  27
MOUNT PLEASANT CLOUDY    28  25  87 E6        30.02S FOG     WCI  22
MUSKEGON       CLOUDY    31  26  82 E5        30.01R HAZE    WCI  26
SOUTH HAVEN    CLOUDY    36  31  82 CALM      29.99S
$$
MIZ016>042-180200-
NORTHERN LOWER MICHIGAN

CITY           SKY/WX    TMP DP  RH WIND       PRES   REMARKS
ALPENA         CLOUDY    27  24  89 SE8       30.05F WCI  19
BEAVER ISLAND  CLOUDY    30  27  90 SE6       30.00F WCI  24
BELLAIRE       CLOUDY    28  26  95 SE5       30.02S WCI  22
CADILLAC       CLOUDY    24  24  99 SE6       29.96F FOG     WCI  17
CHARLEVOIX     CLOUDY    28  25  89 SE6       30.03F WCI  21
FRANKFORT      CLOUDY    31  27  88 SE6       30.00S WCI  25
GAYLORD        CLOUDY    23  21  92 SE9       29.98F FOG     WCI  13
GRAYLING       CLOUDY    24  22  89 E7        30.01S WCI  16
HARBOR SPRINGS CLOUDY    26  23  88 E5        30.01F WCI  20
HOUGHTON LAKE  CLOUDY    24  20  84 E7        30.00F WCI  16
MANISTEE       CLOUDY    29  32 100 SE5       30.01R WCI  24
OSCODA         CLOUDY    30  24  78 SE3       30.05F
PELLSTON       CLOUDY    26  22  84 SE7       30.02F WCI  18
ROGERS CITY    CLOUDY    27  24  89 SE8       30.05F WCI  18
TRAVERSE CITY  CLOUDY    28  24  85 VRB6      30.00F WCI  22
$$
MIZ007>008-015-180200-
EASTERN UPPER MICHIGAN

CITY           SKY/WX    TMP DP  RH WIND       PRES   REMARKS
MACKINAC ISLAN CLOUDY    28  22  79 SE9       30.01F WCI  19
NEWBERRY       CLOUDY    17  17  97 E3        30.00F
S. S. MARIE    CLOUDY    17  12  80 E8        30.04F WCI   7
MUNISING         N/A     26  24  92 S6        29.97F WCI  19
$$
MIZ004>006-011>014-085-180200-
CENTRAL UPPER MICHIGAN

CITY           SKY/WX    TMP DP  RH WIND       PRES   REMARKS
MANISTIQUE     CLOUDY    31  26  81 SE9       29.98F WCI  23
ESCANABA       CLOUDY    29  26  89 CALM      29.98F
MENOMINEE      CLOUDY    31  28  89 CALM      29.99F
SAWYER-GWINN   LGT SNOW  25  23  93 SW7       29.95F WCI  17
$$
MIZ001>003-009>011-084-180200-
WESTERN UPPER MICHIGAN

CITY           SKY/WX    TMP DP  RH WIND       PRES   REMARKS
IRON MOUNTAIN  CLOUDY    26  23  88 CALM      29.95S
HOUGHTON       CLOUDY    26  21  81 SW5       29.92F WCI  20
COPPER HARBOR    N/A     27  21  78 NW3       29.94F
IRONWOOD       CLOUDY    25  23  93 SW3       29.94S
$$

ABBREVIATIONS USED IN REMARKS
   TC - TEMPERATURE IN CELSIUS
  WCI - WIND CHILL INDEX
   HX - HEAT INDEX
  VSB - VISIBILITY